Barrow, AK

7:21 PM AKDT on June 18, 2018 (GMT -0800)
Wiley Post-Will Rogers Memorial

Weather History for PABR - January, 2017

Change the Weather History Date:

Monday, January 9, 2017

  Actual Average Record
Temperature  
Mean Temperature 18 °F -13 °F  
Max Temperature 25 °F -7 °F 33 °F (2011)
Min Temperature 10 °F -19 °F -45 °F (1925)
Degree Days  
Heating Degree Days 47 78  
Month to date heating degree days 417 695  
Since 1 July heating degree days 7376 8904  
Cooling Degree Days 0 0  
Month to date cooling degree days 0 0  
Year to date cooling degree days 0 0  
Moisture  
Dew Point 17 °F    
Average Humidity 86    
Maximum Humidity 93    
Minimum Humidity 80    
Precipitation  
Precipitation 0.01 in 0.00 in 0.05 in (1947)
Month to date precipitation 0.40 0.04  
Year to date precipitation 0.40 0.04  
Snow  
Snow T in 0.10 in 0.60 in (2002)
Month to date snowfall 3.4 0.8  
Since 1 July snowfall 20.7 24.6  
Snow Depth 5.00 in    
Sea Level Pressure  
Sea Level Pressure 30.11 in    
Wind  
Wind Speed 14 mph (WSW)    
Max Wind Speed 21 mph    
Max Gust Speed -    
Visibility 4 miles    
Events Fog , Snow    
T = Trace of Precipitation, MM = Missing Value Source: NWS Daily Summary

Daily Weather History Graph

Daily Weather History Graph

Search for Another Location

Airport or City:

Astronomy

Dec. 31, 1969 Rise Set
Actual Time Sun does not set Sun does not set
Civil Twilight 11:23 AM AKST 3:46 PM AKST
Nautical Twilight 9:32 AM AKST 5:37 PM AKST
Astronomical Twilight 8:09 AM AKST 6:59 PM AKST
Moon 12:34 PM AKST (1/9) 9:16 AM AKST (1/9)
Length of Visible Light 4h 23m
Length of Day
0h 00m
Waxing Gibbous, 91% of the Moon is Illuminated
Jan 9
Waxing Gibbous
Jan 12
Full
Jan 19
Last Quarter
Jan 27
New
Feb 3
First Quarter

Hourly Weather History & Observations

Time (AKST) Temp. Windchill Dew Point Humidity Pressure Visibility Wind Dir Wind Speed Gust Speed Precip Events Conditions
12:53 AM 23.0 °F 10.1 °F 19.9 °F 88% 30.13 in 10.0 mi WSW 15.0 mph - N/A   Overcast
1:53 AM 24.1 °F 9.4 °F 21.0 °F 88% 30.13 in 7.0 mi West 20.7 mph - 0.00 in   Overcast
2:53 AM 24.1 °F 10.6 °F 19.9 °F 84% 30.12 in 9.0 mi West 17.3 mph - N/A   Overcast
3:53 AM 24.1 °F 10.1 °F 19.9 °F 84% 30.12 in 4.0 mi West 18.4 mph - N/A   Overcast
4:53 AM 24.1 °F 11.5 °F 21.0 °F 88% 30.12 in 8.0 mi West 15.0 mph - N/A   Overcast
5:50 AM 24.8 °F 12.9 °F 21.2 °F 86% 30.12 in 2.0 mi West 13.8 mph - N/A   Overcast
5:53 AM 24.1 °F 12.0 °F 21.0 °F 88% 30.13 in 1.5 mi West 13.8 mph - 0.00 in   Overcast
6:16 AM 24.1 °F 11.5 °F 21.0 °F 88% 30.13 in 2.0 mi West 15.0 mph - N/A   Overcast
6:30 AM 24.1 °F 11.5 °F 21.0 °F 88% 30.13 in 5.0 mi West 15.0 mph - 0.00 in   Overcast
6:53 AM 24.1 °F 11.0 °F 21.0 °F 88% 30.14 in 4.0 mi West 16.1 mph - 0.00 in   Overcast
7:03 AM 24.1 °F 11.5 °F 21.0 °F 88% 30.13 in 1.8 mi West 15.0 mph - N/A   Overcast
7:17 AM 25.0 °F 13.1 °F 21.9 °F 88% 30.13 in 1.2 mi West 13.8 mph - 0.00 in   Light Freezing Drizzle
7:53 AM 24.1 °F 12.0 °F 21.0 °F 88% 30.14 in 1.5 mi West 13.8 mph - 0.00 in Snow Light Freezing Drizzle
8:00 AM 25.0 °F 12.2 °F 21.0 °F 85% 30.13 in 3.0 mi West 16.1 mph - 0.00 in Snow Light Freezing Drizzle
8:08 AM 25.0 °F 12.6 °F 21.0 °F 85% 30.14 in 5.0 mi West 15.0 mph - 0.00 in   Overcast
8:18 AM 25.0 °F 13.6 °F 21.0 °F 85% 30.14 in 2.5 mi WNW 12.7 mph - 0.01 in Snow Light Snow
8:25 AM 25.0 °F 13.1 °F 21.0 °F 85% 30.14 in 4.0 mi WNW 13.8 mph - 0.01 in   Overcast
8:39 AM 25.0 °F 13.1 °F 21.0 °F 85% 30.14 in 5.0 mi West 13.8 mph - 0.01 in Snow Light Snow
8:53 AM 25.0 °F 13.1 °F 21.0 °F 85% 30.14 in 2.0 mi WNW 13.8 mph - 0.01 in   Overcast
9:06 AM 25.0 °F 13.1 °F 21.0 °F 85% 30.14 in 7.0 mi WNW 13.8 mph - N/A   Overcast
9:21 AM 24.1 °F 12.5 °F 21.0 °F 88% 30.14 in 1.8 mi West 12.7 mph - 0.00 in Snow Light Snow
9:32 AM 24.1 °F 12.5 °F 21.0 °F 88% 30.14 in 3.0 mi West 12.7 mph - 0.00 in Snow Light Snow
9:48 AM 24.8 °F 14.0 °F 21.2 °F 86% 30.14 in 1.8 mi West 11.5 mph - 0.00 in Snow Light Snow
9:49 AM 25.0 °F 13.6 °F 21.9 °F 88% 30.14 in 1.8 mi West 12.7 mph - 0.00 in Snow Light Snow
10:21 AM 21.9 °F 11.7 °F 19.9 °F 92% 30.14 in 0.5 mi West 9.2 mph - 0.00 in Fog , Snow Light Snow
10:53 AM 23.0 °F 11.1 °F 19.9 °F 88% 30.14 in 0.5 mi West 12.7 mph - 0.00 in Fog , Snow Light Snow
11:46 AM 23.0 °F 11.1 °F 19.0 °F 85% 30.13 in 2.0 mi WSW 12.7 mph - 0.00 in   Overcast
11:53 AM 21.9 °F 11.0 °F 19.0 °F 89% 30.14 in 2.0 mi WSW 10.4 mph - 0.00 in   Overcast
12:27 PM 21.0 °F 10.6 °F 17.1 °F 85% 30.13 in 3.0 mi SW 9.2 mph - N/A   Mostly Cloudy
12:50 PM 19.4 °F 8.6 °F 17.6 °F 93% 30.13 in 0.8 mi SW 9.2 mph - N/A   Mist
12:53 PM 19.9 °F 9.3 °F 17.1 °F 89% 30.14 in 0.8 mi SW 9.2 mph - N/A   Mist
1:13 PM 19.0 °F 9.0 °F 16.0 °F 88% 30.12 in 0.5 mi SSW 8.1 mph - N/A Fog Light Freezing Fog
1:24 PM 19.9 °F 9.3 °F 17.1 °F 89% 30.13 in 1.0 mi SW 9.2 mph - N/A   Overcast
1:32 PM 19.9 °F 8.6 °F 16.0 °F 85% 30.12 in 3.0 mi WSW 10.4 mph - N/A   Overcast
1:53 PM 19.0 °F 7.5 °F 15.1 °F 85% 30.13 in 10.0 mi WSW 10.4 mph - N/A   Mostly Cloudy
1:55 PM 19.0 °F 7.5 °F 15.1 °F 85% 30.12 in 10.0 mi SW 10.4 mph - N/A   Scattered Clouds
2:45 PM 16.0 °F 3.6 °F 12.0 °F 84% 30.10 in 1.8 mi SSW 10.4 mph - N/A   Overcast
2:53 PM 15.1 °F 1.8 °F 10.9 °F 84% 30.11 in 0.8 mi SSW 11.5 mph - N/A   Mist
3:16 PM 15.1 °F -0.1 °F 10.9 °F 84% 30.09 in 1.0 mi SSW 15.0 mph - N/A   Mist
3:21 PM 15.1 °F 0.5 °F 10.9 °F 84% 30.10 in 0.5 mi SSW 13.8 mph - N/A Fog Light Freezing Fog
3:37 PM 14.0 °F -2.5 °F 10.0 °F 84% 30.09 in 1.0 mi SSW 17.3 mph - N/A   Mist
3:53 PM 12.9 °F -2.8 °F 9.0 °F 84% 30.10 in 2.5 mi SSW 15.0 mph - N/A   Overcast
3:59 PM 12.9 °F -1.6 °F 9.0 °F 84% 30.09 in 0.8 mi SSW 12.7 mph - N/A   Overcast
4:15 PM 12.9 °F -0.2 °F 9.0 °F 84% 30.08 in 2.5 mi SSW 10.4 mph - N/A   Overcast
4:22 PM 12.0 °F -1.3 °F 8.1 °F 84% 30.08 in 8.0 mi SSW 10.4 mph - N/A   Overcast
4:41 PM 10.0 °F -3.7 °F 6.1 °F 84% 30.07 in 10.0 mi SSW 10.4 mph - N/A   Scattered Clouds
4:53 PM 10.0 °F -4.5 °F 5.0 °F 80% 30.07 in 10.0 mi SSW 11.5 mph - N/A   Clear
5:53 PM 14.0 °F -0.2 °F 9.0 °F 80% 30.05 in 8.0 mi SW 12.7 mph - N/A   Clear
6:53 PM 17.1 °F 2.5 °F 12.0 °F 81% 30.04 in 10.0 mi WSW 15.0 mph - N/A   Clear
7:53 PM 18.0 °F 3.6 °F 14.0 °F 84% 30.04 in 10.0 mi WSW 15.0 mph - N/A   Clear
8:53 PM 19.0 °F 4.0 °F 14.0 °F 81% 30.02 in 10.0 mi WSW 17.3 mph - N/A   Clear
9:53 PM 18.0 °F 3.1 °F 12.9 °F 81% 30.01 in 10.0 mi WSW 16.1 mph - N/A   Clear
10:53 PM 17.1 °F 3.0 °F 12.0 °F 81% 30.00 in 10.0 mi WSW 13.8 mph - N/A   Clear
11:53 PM 17.1 °F 2.5 °F 12.0 °F 81% 30.00 in 10.0 mi WSW 15.0 mph - N/A   Clear